Weather History for Bremerton, WA

Change the Weather History Date:

Monday, February 25, 2013

  Actual Average Record
Temperature  
Mean Temperature 38 °F -  
Max Temperature 50 °F 46 °F 53 °F (2008)
Min Temperature 26 °F 32 °F 21 °F (2011)
Degree Days  
Heating Degree Days 27    
Moisture  
Dew Point 29 °F    
Average Humidity 65    
Maximum Humidity 86    
Minimum Humidity 40    
Precipitation  
Precipitation 0.00 in - - ()
Sea Level Pressure  
Sea Level Pressure 30.16 in    
Wind  
Wind Speed 15 mph (SSW)    
Max Wind Speed 22 mph    
Max Gust Speed 31 mph    
Visibility 10 miles    
Events      
Averages and records for this station are not official NWS values.
T = Trace of Precipitation, MM = Missing Value Source: NWS Daily Summary

Daily Weather History Graph

Daily Weather History Graph

Search for Another Location

Airport:

Trip Planner

Search our weather history database for the weather conditions in past years. The results will help you decide how hot, cold, wet, or windy it might be!

Date:

Astronomy

Feb. 25, 2013 Rise Set
Actual Time 6:58 AM PST 5:50 PM PST
Civil Twilight 6:27 AM PST 6:21 PM PST
Nautical Twilight 5:51 AM PST 6:57 PM PST
Astronomical Twilight 5:16 AM PST 7:32 PM PST
Moon 6:14 PM PST (2/25) 6:28 AM PST (2/25)
Length of Visible Light 11h 54m
Length of Day
10h 52m
Full, 100% of the Moon is Illuminated
Feb 25
Full
Feb 25
Full
Mar 4
Last Quarter
Mar 11
New
Mar 19
First Quarter

Hourly Weather History & Observations

Time (PST) Temp. Windchill Dew Point Humidity Pressure Visibility Wind Dir Wind Speed Gust Speed Precip Events Conditions
8:35 AM 39.2 °F 30.2 °F 33.8 °F 81% 30.01 in 10.0 mi SSW 17.3 mph 23.0 mph N/A   Partly Cloudy
8:55 AM 39.2 °F 29.6 °F 33.8 °F 81% 30.00 in 10.0 mi SSW 19.6 mph - N/A   Partly Cloudy
9:15 AM 39.2 °F 31.2 °F 33.8 °F 81% 30.02 in 10.0 mi SSW 13.8 mph 18.4 mph N/A   Partly Cloudy
9:35 AM 41.0 °F 32.2 °F 35.6 °F 81% 30.03 in 10.0 mi SSW 18.4 mph 25.3 mph N/A   Partly Cloudy
9:55 AM 42.8 °F 34.5 °F 33.8 °F 70% 30.02 in 10.0 mi South 18.4 mph 25.3 mph N/A   Clear
10:15 AM 42.8 °F 34.5 °F 33.8 °F 70% 30.04 in 10.0 mi South 18.4 mph 26.5 mph N/A   Clear
10:35 AM 42.8 °F 34.3 °F 33.8 °F 70% 30.04 in 10.0 mi South 19.6 mph 25.3 mph N/A   Clear
10:55 AM 44.6 °F 36.9 °F 32.0 °F 61% 30.06 in 10.0 mi SSW 18.4 mph 26.5 mph N/A   Clear
11:15 AM 44.6 °F 36.6 °F 32.0 °F 61% 30.06 in 10.0 mi SSW 19.6 mph 29.9 mph N/A   Clear
11:35 AM 46.4 °F 39.0 °F 32.0 °F 57% 30.09 in 10.0 mi SSW 19.6 mph 28.8 mph N/A   Clear
11:55 AM 48.2 °F - 30.2 °F 50% 30.09 in 10.0 mi SSW 17.3 mph 26.5 mph N/A   Clear
12:15 PM 48.2 °F - 30.2 °F 50% 30.10 in 10.0 mi SSW 20.7 mph 28.8 mph N/A   Clear
12:35 PM 46.4 °F 38.5 °F 32.0 °F 57% 30.11 in 10.0 mi SSW 21.9 mph 31.1 mph N/A   Clear
12:55 PM 46.4 °F 38.7 °F 33.8 °F 62% 30.11 in 10.0 mi SSW 20.7 mph 28.8 mph N/A   Clear
1:15 PM 48.2 °F - 32.0 °F 54% 30.10 in 10.0 mi SSW 19.6 mph 27.6 mph N/A   Clear
1:35 PM 48.2 °F - 30.2 °F 50% 30.12 in 10.0 mi SSW 20.7 mph 26.5 mph N/A   Clear
1:55 PM 48.2 °F - 30.2 °F 50% 30.12 in 10.0 mi SSW 19.6 mph 26.5 mph N/A   Clear
2:15 PM 48.2 °F - 26.6 °F 43% 30.11 in 10.0 mi SW 13.8 mph 23.0 mph N/A   Clear
2:35 PM 50.0 °F - 26.6 °F 40% 30.13 in 10.0 mi SW 15.0 mph 24.2 mph N/A   Clear
2:55 PM 48.2 °F - 24.8 °F 40% 30.12 in 10.0 mi SW 19.6 mph 25.3 mph N/A   Clear
3:15 PM 48.2 °F - 26.6 °F 43% 30.14 in 10.0 mi SSW 16.1 mph 24.2 mph N/A   Clear
3:35 PM 46.4 °F 39.0 °F 28.4 °F 50% 30.14 in 10.0 mi SSW 19.6 mph 25.3 mph N/A   Clear
3:55 PM 46.4 °F 39.2 °F 28.4 °F 50% 30.16 in 10.0 mi SSW 18.4 mph 24.2 mph N/A   Clear
4:15 PM 46.4 °F 39.8 °F 28.4 °F 50% 30.16 in 10.0 mi SSW 16.1 mph - N/A   Clear
4:35 PM 44.6 °F 36.9 °F 28.4 °F 53% 30.16 in 10.0 mi SW 18.4 mph 23.0 mph N/A   Clear
4:55 PM 44.6 °F 37.4 °F 28.4 °F 53% 30.17 in 10.0 mi SSW 16.1 mph 21.9 mph N/A   Clear
5:15 PM 44.6 °F 37.2 °F 28.4 °F 53% 30.17 in 10.0 mi SSW 17.3 mph - N/A   Clear
5:35 PM 41.0 °F 32.5 °F 28.4 °F 61% 30.18 in 10.0 mi SSW 17.3 mph 21.9 mph N/A   Clear
5:55 PM 41.0 °F 34.3 °F 28.4 °F 61% 30.19 in 10.0 mi SSW 11.5 mph - N/A   Clear
6:15 PM 39.2 °F 33.6 °F 28.4 °F 65% 30.20 in 10.0 mi SSW 8.1 mph - N/A   Clear
6:35 PM 39.2 °F 33.6 °F 30.2 °F 70% 30.21 in 10.0 mi SSW 8.1 mph - N/A   Clear
6:55 PM 37.4 °F 32.8 °F 28.4 °F 70% 30.22 in 10.0 mi SW 5.8 mph - N/A   Clear
7:15 PM 35.6 °F - 28.4 °F 75% 30.22 in 10.0 mi Calm Calm - N/A   Clear
7:35 PM 35.6 °F 32.8 °F 28.4 °F 75% 30.24 in 10.0 mi SSE 3.5 mph - N/A   Clear
7:55 PM 35.6 °F 32.8 °F 26.6 °F 70% 30.25 in 10.0 mi SW 3.5 mph - N/A   Clear
8:15 PM 30.2 °F 24.3 °F 26.6 °F 86% 30.24 in 10.0 mi SSW 5.8 mph - N/A   Clear
8:35 PM 33.8 °F 30.8 °F 28.4 °F 81% 30.26 in 10.0 mi South 3.5 mph - N/A   Clear
8:55 PM 33.8 °F - 26.6 °F 75% 30.27 in 10.0 mi Calm Calm - N/A   Clear
9:15 PM 32.0 °F - 24.8 °F 75% 30.27 in 10.0 mi Calm Calm - N/A   Clear
9:35 PM 30.2 °F - 24.8 °F 80% 30.28 in 10.0 mi Calm Calm - N/A   Clear
9:55 PM 30.2 °F 26.7 °F 24.8 °F 80% 30.29 in 10.0 mi ESE 3.5 mph - N/A   Clear
10:15 PM 28.4 °F - 24.8 °F 86% 30.30 in 10.0 mi Calm Calm - N/A   Clear
10:35 PM 28.4 °F - 24.8 °F 86% 30.30 in 10.0 mi Calm Calm - N/A   Clear
10:55 PM 30.2 °F - 24.8 °F 80% 30.30 in 10.0 mi Calm Calm - N/A   Clear
11:15 PM 28.4 °F - 23.0 °F 80% 30.30 in 10.0 mi Calm Calm - N/A   Clear
11:35 PM 26.6 °F - 21.2 °F 80% 30.31 in 10.0 mi Calm Calm - N/A   Clear
11:55 PM 28.4 °F - 23.0 °F 80% 30.32 in 10.0 mi Calm Calm - N/A   Clear